TINTIN A (43216 NORAD) Tracking and Keplerian Element Data

This shows tracking and keplerian element data for the satellite.

Feedback or suggestion? Click here.




ElementValue
Catalog43216
NameTINTIN A
Epoch Orbit14020
Epoch Day242.31950788
Epoch Year2020
RAAN260.1382
Inclination97.4245
Eccentricity0.0015282
Argument of Perigee265.467
Mean Anonmoly95.5903
Mean Motion16.40201759
Decay Rate0.26379725
L11 43216U 18020B 20242.31950788 .26379725 25650-5 16505-2 0 9991
L22 43216 97.4245 260.1382 0015282 265.4670 95.5903 16.40201759140202



Live tracking and technical data element details for TINTIN A (NORAD 43216). TINTIN A can be tracked NOW for your location showing map with azimuth and elevation plus other details from your city location.







IsCatalogInMostPopularTable: catalog: 43216, numindb: 868
Update: records affected: 1



GetName: 43216 TINTIN A

Hit Count: updated at: Tue, 17 Sep 2024 12:45:59 GMT